Home > Weather > Birmingham > Past weeks

Flag for United Kingdom Past Weather in Birmingham, England, United Kingdom — Yesterday and Last 2 Weeks

Now
68 °F

Overcast.


Feels Like: 68 °F
Forecast: 54 / 68 °F
Wind: 3 mph from North

Location: Birmingham / Airport

Current Time: Aug 25, 2016 at 6:05:02 PM

Latest Report: Aug 25, 2016 at 5:20 PM


Visibility: 4 mi

Pressure: 29.98 "Hg

Humidity: 88%

Dew Point: 64 °F

Location of BirminghamLocation

Past Weather in Birmingham — Graph

°F

Birmingham Temperature Yesterday

Maximum temperature yesterday: 77 °F (at 2:50 PM)
Minimum temperature yesterday: 59 °F (at 6:20 AM)
Average temperature yesterday: 67 °F

High & Low Weather Summary for the Past Weeks

 TemperatureHumidityPressure
High82 °F (Aug 23, 3:20 PM)100% (Aug 12, 5:20 AM)30.33 "Hg (Aug 12, 5:20 AM)
Low48 °F (Aug 15, 4:50 AM)39% (Aug 15, 5:20 PM)29.56 "Hg (Aug 19, 6:20 PM)
Average64 °F75%30.04 "Hg
* Reported Aug 10 4:20 PM — Aug 25 4:50 PM, Birmingham, Weather by CustomWeather, © 2016

Note: Actual official high and low records may vary slightly from our data, if they occured in-between our weather recording intervals... More about our weather records

Advertising

Birmingham Weather History for the Previous 24 Hours

Scroll right to see more
 ConditionsComfort  
Time TempWeatherWind HumidityBarometerVisibility
4:50 PM
Thu, Aug 25
68 °FOvercast.No wind88%29.98 "Hg4 mi
4:20 PM68 °FLow clouds.2 mph88%29.98 "Hg3 mi
3:50 PM66 °FLow clouds.5 mph94%29.98 "Hg3 mi
3:20 PM66 °FLow clouds.5 mph88%29.98 "Hg3 mi
2:50 PM64 °FLow clouds.6 mph94%30.01 "Hg3 mi
2:20 PM64 °FFog.7 mph94%30.01 "Hg2 mi
1:50 PM64 °FFog.6 mph94%30.01 "Hg2 mi
1:20 PM64 °FFog.5 mph94%30.01 "Hg2 mi
12:50 PM64 °FFog.3 mph94%30.01 "Hg2 mi
12:20 PM63 °FFog.5 mph100%30.01 "Hg2 mi
11:50 AM63 °FFog.5 mph100%30.01 "Hg2 mi
11:20 AM63 °FFog.5 mph100%30.01 "Hg2 mi
10:50 AM63 °FFog.6 mph100%30.04 "Hg2 mi
10:20 AM63 °FFog.6 mph100%30.01 "Hg2 mi
9:50 AM63 °FFog.5 mph94%30.04 "Hg2 mi
9:20 AM61 °FFog.5 mph100%30.04 "Hg1 mi
8:50 AM61 °FFog.6 mph100%30.04 "Hg1 mi
8:20 AM61 °FFog.5 mph100%30.04 "Hg1 mi
7:50 AM61 °FFog.5 mph100%30.04 "Hg2 mi
7:20 AM61 °FDrizzle. Low clouds.3 mph100%30.04 "Hg2 mi
6:50 AM61 °FDrizzle. Low clouds.6 mph100%30.01 "Hg2 mi
6:20 AM61 °FDrizzle. Low clouds.5 mph100%30.04 "Hg3 mi
5:50 AM61 °FPassing clouds.3 mph100%30.04 "Hg4 mi
5:20 AM61 °FLight rain. Passing clouds.5 mph100%30.04 "Hg4 mi
4:50 AM61 °FRain. Passing clouds.5 mph100%30.04 "Hg4 mi
4:20 AM61 °FLight rain. Clear.5 mph100%30.04 "Hg5 mi
3:50 AM61 °FLight rain. Clear.6 mph100%30.07 "Hg5 mi
3:20 AM61 °FRain. Passing clouds.5 mph94%30.09 "Hg5 mi
2:50 AM61 °FRain. Passing clouds.5 mph100%30.09 "Hg5 mi
2:20 AM63 °FLight rain. Clear.6 mph88%30.07 "HgN/A
1:50 AM63 °FClear.7 mph88%30.07 "Hg10 mi
1:20 AM63 °FClear.5 mph88%30.07 "Hg10 mi
12:50 AM63 °FClear.8 mph88%30.07 "Hg10 mi
12:20 AM63 °FPassing clouds.7 mph94%30.07 "HgN/A
11:50 PM
Wed, Aug 24
63 °FPassing clouds.6 mph88%30.09 "HgN/A
11:20 PM64 °FClear.5 mph83%30.09 "Hg10 mi
10:50 PM64 °FClear.7 mph83%30.09 "Hg10 mi
10:20 PM64 °FPassing clouds.5 mph83%30.09 "HgN/A
9:50 PM64 °FClear.6 mph83%30.09 "Hg10 mi
9:20 PM64 °FClear.5 mph83%30.09 "Hg10 mi
8:50 PM64 °FLight rain. Clear.6 mph88%30.09 "HgN/A
8:20 PM64 °FSunny.7 mph83%30.09 "Hg10 mi
7:50 PM66 °FClear.7 mph78%30.09 "Hg6 mi
7:20 PM68 °FLight rain. Passing clouds.9 mph73%30.09 "HgN/A
6:50 PM70 °FSunny.10 mph64%30.09 "Hg10 mi
6:20 PM72 °FSunny.13 mph61%30.12 "Hg10 mi
Weather by CustomWeather, © 2016

See weather overviewHow to use our weather pages